Home > Weather > Harstad > Past weeks

Flag for Norway Weather for the Past 2 Weeks in Harstad, Norway

Now
50 °F

Sunny.


Feels Like: 50 °F
Forecast: 41 / 49 °F
Wind: 1 mph from North

Location: Evenes

Current Time: May 1, 2016 at 10:33:21 PM

Latest Report: May 1, 2016 at 9:50 PM


Visibility: 10 mi

Pressure: 30.15 "Hg

Humidity: 47%

Dew Point: 30 °F

Location of HarstadLocation

Historic Weather in Harstad — Graph

°F

Harstad Temperature Yesterday

Maximum temperature yesterday: 57 °F (at 1:20 PM)
Minimum temperature yesterday: 43 °F (at 12:20 AM)
Average temperature yesterday: 53 °F

High & Low Weather Summary for the Past Weeks

 TemperatureHumidityPressure
High57 °F (Apr 29, 5:50 PM)100% (Apr 22, 11:20 PM)30.36 "Hg (Apr 22, 11:20 PM)
Low23 °F (Apr 25, 3:50 AM)21% (Apr 30, 5:50 PM)29.47 "Hg (Apr 18, 4:20 AM)
Average40 °F59%29.89 "Hg
* Reported Apr 16 8:20 PM — May 1 8:50 PM, Harstad, Weather by CustomWeather, © 2016

Note: Actual official high and low records may vary slightly from our data, if they occured in-between our weather recording intervals... More about our weather records

Advertising

Harstad Weather History for the Previous 24 Hours

Scroll right to see more
 ConditionsComfort  
Time TempWeatherWind HumidityBarometerVisibility
8:50 PM
Sun, May 1
52 °FSunny.5 mph41%30.18 "Hg10 mi
7:50 PM55 °FSunny.8 mph31%30.18 "Hg10 mi
6:50 PM55 °FSunny.9 mph33%30.18 "Hg10 mi
5:50 PM57 °FPassing clouds.8 mph29%30.18 "HgN/A
4:50 PM57 °FSunny.9 mph31%30.18 "Hg10 mi
3:50 PM55 °FSunny.12 mph31%30.21 "Hg10 mi
2:50 PM57 °FSunny.10 mph27%30.21 "Hg10 mi
1:50 PM55 °FPassing clouds.10 mph31%30.21 "HgN/A
12:50 PM55 °FSunny.13 mph31%30.24 "Hg10 mi
11:50 AM54 °FSunny.9 mph30%30.24 "Hg10 mi
10:50 AM54 °FSunny.10 mph28%30.27 "Hg10 mi
9:50 AM52 °FPassing clouds.9 mph30%30.27 "HgN/A
8:50 AM50 °FCool.7 mph32%30.30 "HgN/A
8:20 AM50 °FCool.10 mph30%30.30 "HgN/A
7:50 AM48 °FCool.10 mph37%30.30 "HgN/A
7:20 AM48 °FCool.12 mph37%30.30 "HgN/A
6:50 AM46 °FCool.9 mph43%30.30 "HgN/A
6:20 AM45 °FQuite cool.10 mph42%30.33 "HgN/A
5:50 AM43 °FQuite cool.13 mph46%30.33 "HgN/A
4:50 AM37 °FChilly.10 mph60%30.33 "HgN/A
4:20 AM39 °FChilly.7 mph52%30.36 "HgN/A
3:50 AM39 °FChilly.6 mph52%30.36 "HgN/A
3:20 AM37 °FChilly.7 mph56%30.36 "HgN/A
2:50 AM41 °FQuite cool.2 mph49%30.36 "HgN/A
2:20 AM39 °FChilly.13 mph52%30.36 "HgN/A
1:50 AM39 °FChilly.12 mph56%30.36 "HgN/A
1:20 AM45 °FQuite cool.7 mph46%30.36 "HgN/A
12:50 AM41 °FQuite cool.7 mph53%30.36 "HgN/A
12:20 AM41 °FQuite cool.8 mph49%30.36 "HgN/A
11:50 PM
Sat, Apr 30
46 °FCool.2 mph46%30.36 "HgN/A
10:50 PM43 °FQuite cool.7 mph53%30.36 "HgN/A
10:20 PM43 °FQuite cool.7 mph49%30.36 "HgN/A
Weather by CustomWeather, © 2016

See weather overviewHow to use our weather pages